Kalamazoo, MI

11:19 PM EDT on September 16, 2019 (GMT -0400)
Kalamazoo-Battle Creek International

Weather History for KAZO - August, 2019

Change the Weather History Date:

Thursday, August 22, 2019

  Actual Average Record
Temperature  
Mean Temperature 69 °F 70 °F  
Max Temperature 79 °F 80 °F 100 °F (1936)
Min Temperature 58 °F 60 °F 40 °F (1923)
Degree Days  
Heating Degree Days 0 0  
Month to date heating degree days 0 0  
Since 1 June heating degree days 40 53  
Since 1 July heating degree days 0 5  
Cooling Degree Days 4 5  
Month to date cooling degree days 181 143  
Year to date cooling degree days 696 569  
Since 1 June cooling degree days 681 528  
Growing Degree Days 21 (Base 50)    
Moisture  
Dew Point 53 °F    
Average Humidity 56    
Maximum Humidity 76    
Minimum Humidity 36    
Precipitation  
Precipitation 0.00 in 0.13 in 3.18 in (2001)
Month to date precipitation 1.28 2.63  
Year to date precipitation 24.60 22.35  
Sea Level Pressure  
Sea Level Pressure 30.01 in    
Wind  
Wind Speed 6 mph (NNE)    
Max Wind Speed 15 mph    
Max Gust Speed 20 mph    
Visibility 10 miles    
Events      
T = Trace of Precipitation, MM = Missing Value Source: NWS Daily Summary

Daily Weather History Graph

Daily Weather History Graph

Search for Another Location

Airport or City:

Astronomy

Aug. 22, 2019 Rise Set
Actual Time 6:56 AM EDT 8:32 PM EDT
Civil Twilight 6:27 AM EDT 9:02 PM EDT
Nautical Twilight 5:51 AM EDT 9:37 PM EDT
Astronomical Twilight 5:13 AM EDT 10:15 PM EDT
Moon No Moon Rise 1:38 PM EDT (8/22)
Length of Visible Light 14h 35m
Length of Day
13h 35m
Waning Gibbous, 60% of the Moon is Illuminated
Aug 22
Waning Gibbous
Aug 23
Last Quarter
Aug 30
New
Sep 5
First Quarter
Sep 14
Full

Hourly Weather History & Observations

Time (EDT) Temp. Dew Point Humidity Pressure Visibility Wind Dir Wind Speed Gust Speed Precip Events Conditions
12:53 AM 71.1 °F 60.1 °F 68% 29.96 in 10.0 mi North 5.8 mph - N/A   Clear
1:53 AM 68.0 °F 60.1 °F 76% 29.96 in 10.0 mi North 5.8 mph - N/A   Clear
2:53 AM 68.0 °F 59.0 °F 73% 29.97 in 10.0 mi North 4.6 mph - N/A   Clear
3:53 AM 68.0 °F 57.9 °F 70% 29.96 in 10.0 mi Calm Calm - N/A   Clear
4:53 AM 66.9 °F 57.9 °F 73% 29.96 in 10.0 mi North 4.6 mph - N/A   Scattered Clouds
5:53 AM 66.9 °F 55.9 °F 68% 29.97 in 10.0 mi NE 4.6 mph - N/A   Clear
6:53 AM 66.0 °F 55.9 °F 70% 29.99 in 10.0 mi NE 3.5 mph - N/A   Scattered Clouds
7:53 AM 64.9 °F 55.0 °F 70% 30.01 in 10.0 mi NE 6.9 mph - N/A   Partly Cloudy
8:53 AM 66.0 °F 55.0 °F 68% 30.03 in 10.0 mi ENE 8.1 mph - N/A   Clear
9:53 AM 69.1 °F 54.0 °F 58% 30.01 in 10.0 mi NE 8.1 mph - N/A   Clear
10:53 AM 71.1 °F 53.1 °F 53% 30.03 in 10.0 mi NE 8.1 mph - N/A   Clear
11:53 AM 73.9 °F 54.0 °F 50% 30.02 in 10.0 mi NE 8.1 mph - N/A   Clear
12:53 PM 77.0 °F 54.0 °F 45% 30.02 in 10.0 mi Variable 3.5 mph - N/A   Clear
1:53 PM 75.9 °F 52.0 °F 43% 30.02 in 10.0 mi Variable 5.8 mph - N/A   Mostly Cloudy
2:53 PM 75.9 °F 52.0 °F 43% 30.03 in 10.0 mi NNW 4.6 mph - N/A   Mostly Cloudy
3:53 PM 77.0 °F 53.1 °F 43% 30.02 in 10.0 mi North 11.5 mph 17.3 mph N/A   Mostly Cloudy
4:53 PM 78.1 °F 51.1 °F 39% 30.01 in 10.0 mi North 6.9 mph - N/A   Mostly Cloudy
5:53 PM 78.1 °F 50.0 °F 37% 30.01 in 10.0 mi North 12.7 mph - N/A   Partly Cloudy
6:53 PM 75.9 °F 46.9 °F 36% 30.01 in 10.0 mi NNW 12.7 mph - N/A   Partly Cloudy
7:53 PM 73.0 °F 48.0 °F 41% 30.03 in 10.0 mi NNE 6.9 mph - N/A   Clear
8:53 PM 66.9 °F 48.9 °F 52% 30.05 in 10.0 mi North 5.8 mph - N/A   Clear
9:53 PM 66.0 °F 50.0 °F 56% 30.07 in 10.0 mi NNE 3.5 mph - N/A   Clear
10:53 PM 64.0 °F 50.0 °F 60% 30.08 in 10.0 mi North 3.5 mph - N/A   Clear
11:53 PM 60.1 °F 50.0 °F 69% 30.09 in 10.0 mi Calm Calm - N/A   Clear